When you browse on this site, cookies collect data to enhance your experience and personalize the content and advertising you see.
Visit our Privacy Policy to learn more. By continuing to use the site, you agree to this use of cookies and data.
  • In United Kingdom
  • List of Countries
  • For 7 days
  • Water Temperature
  • Satellite Maps
  • Weather Map
  • Weather Widgets
  • user-avatar
    Login

    Hourly Weather Valeni

    Today, 19 February, Tuesday

    Time Temperature Precipitation Wind Pressure Humidity
    00:00 +7°C° 0 mm 1 mps 761 mmHg 76%
    01:00 +6°C° 0 mm 1 mps 761 mmHg 77%
    02:00 +6°C° 0 mm 1 mps 761 mmHg 78%
    03:00 +6°C° 0 mm 1 mps 761 mmHg 79%
    04:00 +5°C° 0 mm 1 mps 761 mmHg 80%
    05:00 +4°C° 0 mm 2 mps 760 mmHg 81%
    06:00 +4°C° 0 mm 2 mps 760 mmHg 81%
    07:00 +4°C° 0 mm 2 mps 761 mmHg 81%
    08:00 +4°C° 0 mm 2 mps 761 mmHg 82%
    09:00 +5°C° 0 mm 3 mps 760 mmHg 76%
    10:00 +7°C° 0 mm 3 mps 760 mmHg 70%
    11:00 +8°C° 0 mm 4 mps 760 mmHg 65%
    12:00 +10°C° 0 mm 4 mps 760 mmHg 61%
    13:00 +10°C° 0 mm 5 mps 759 mmHg 58%
    14:00 +12°C° 0 mm 5 mps 759 mmHg 55%
    15:00 +12°C° 0 mm 5 mps 759 mmHg 57%
    16:00 +10°C° 0 mm 5 mps 758 mmHg 59%
    17:00 +10°C° 0 mm 5 mps 758 mmHg 60%
    18:00 +9°C° 0 mm 5 mps 758 mmHg 65%
    19:00 +8°C° 0 mm 5 mps 758 mmHg 69%
    20:00 +5°C° 0 mm 6 mps 757 mmHg 74%
    21:00 +6°C° 0 mm 5 mps 757 mmHg 77%
    22:00 +5°C° 0 mm 5 mps 757 mmHg 79%
    23:00 +5°C° 0 mm 5 mps 757 mmHg 82%

    Tomorrow, 20 February, Wednesday

    Time Temperature Precipitation Wind Pressure Humidity
    00:00 +5°C° 0 mm 5 mps 757 mmHg 85%
    01:00 +3°C° 0 mm 5 mps 756 mmHg 87%
    02:00 +4°C° 0 mm 4 mps 756 mmHg 90%
    03:00 +4°C° 0 mm 4 mps 756 mmHg 91%
    04:00 +3°C° 0 mm 4 mps 755 mmHg 93%
    05:00 +3°C° 0 mm 3 mps 755 mmHg 94%
    06:00 +3°C° 0 mm 3 mps 755 mmHg 94%
    07:00 +4°C° 0 mm 2 mps 755 mmHg 93%
    08:00 +4°C° 0 mm 2 mps 755 mmHg 92%
    09:00 +6°C° 0 mm 2 mps 755 mmHg 80%
    10:00 +8°C° 0 mm 2 mps 755 mmHg 67%
    11:00 +10°C° 0 mm 3 mps 755 mmHg 54%
    12:00 +11°C° 0 mm 3 mps 755 mmHg 48%
    13:00 +12°C° 0 mm 3 mps 754 mmHg 42%
    14:00 +13°C° 0 mm 3 mps 754 mmHg 36%
    15:00 +13°C° 0 mm 4 mps 754 mmHg 38%
    16:00 +12°C° 0 mm 4 mps 755 mmHg 41%
    17:00 +12°C° 0 mm 4 mps 755 mmHg 43%
    18:00 +11°C° 0 mm 4 mps 755 mmHg 49%
    19:00 +10°C° 0 mm 4 mps 756 mmHg 55%
    20:00 +7°C° 0 mm 4 mps 757 mmHg 61%
    21:00 +7°C° 0 mm 4 mps 757 mmHg 64%
    22:00 +7°C° 0 mm 4 mps 758 mmHg 66%
    23:00 +6°C° 0 mm 4 mps 758 mmHg 68%

    Day after tomorrow, 21 February, Thursday

    Time Temperature Precipitation Wind Pressure Humidity
    00:00 +7°C° 0 mm 3 mps 758 mmHg 69%
    01:00 +5°C° 0 mm 3 mps 759 mmHg 71%
    02:00 +5°C° 0 mm 3 mps 759 mmHg 72%
    03:00 +4°C° 0 mm 3 mps 759 mmHg 73%
    04:00 +5°C° 0 mm 2 mps 759 mmHg 75%
    05:00 +5°C° 0 mm 2 mps 759 mmHg 76%
    06:00 +5°C° 0 mm 2 mps 759 mmHg 74%
    07:00 +4°C° 0 mm 3 mps 760 mmHg 73%
    08:00 +4°C° 0 mm 3 mps 760 mmHg 71%
    09:00 +5°C° 0 mm 3 mps 760 mmHg 63%
    10:00 +8°C° 0 mm 3 mps 760 mmHg 54%
    11:00 +9°C° 0 mm 3 mps 760 mmHg 46%
    12:00 +10°C° 0 mm 4 mps 760 mmHg 43%
    13:00 +11°C° 0 mm 4 mps 760 mmHg 40%
    14:00 +11°C° 0 mm 4 mps 759 mmHg 37%
    15:00 +11°C° 0 mm 4 mps 759 mmHg 39%
    16:00 +11°C° 0 mm 4 mps 759 mmHg 41%
    17:00 +10°C° 0 mm 3 mps 759 mmHg 43%
    18:00 +9°C° 0 mm 3 mps 759 mmHg 47%
    19:00 +9°C° 0 mm 3 mps 759 mmHg 51%
    20:00 +8°C° 0 mm 3 mps 759 mmHg 55%
    21:00 +7°C° 0 mm 2 mps 759 mmHg 57%
    22:00 +7°C° 0 mm 2 mps 759 mmHg 59%
    23:00 +6°C° 0 mm 2 mps 759 mmHg 61%

    22 February, Friday

    Time Temperature Precipitation Wind Pressure Humidity
    00:00 +6°C° 0 mm 2 mps 758 mmHg 61%
    01:00 +6°C° 0 mm 2 mps 758 mmHg 61%
    02:00 +5°C° 0 mm 2 mps 758 mmHg 62%
    03:00 +5°C° 0 mm 2 mps 757 mmHg 62%
    04:00 +5°C° 0 mm 2 mps 756 mmHg 62%
    05:00 +6°C° 0 mm 1 mps 755 mmHg 62%
    06:00 +6°C° 0.2 mm 1 mps 755 mmHg 64%
    07:00 +6°C° 0.2 mm 1 mps 755 mmHg 66%
    08:00 +6°C° 0.2 mm 1 mps 755 mmHg 68%
    09:00 +6°C° 0.5 mm 1 mps 754 mmHg 71%
    10:00 +5°C° 0.5 mm 2 mps 754 mmHg 73%
    11:00 +6°C° 0.5 mm 2 mps 754 mmHg 75%
    12:00 +5°C° 0.5 mm 3 mps 754 mmHg 74%
    13:00 +5°C° 0.5 mm 3 mps 754 mmHg 74%
    14:00 +6°C° 0.5 mm 4 mps 754 mmHg 74%
    15:00 +3°C° 0.4 mm 6 mps 755 mmHg 75%
    16:00 0°C° 0.4 mm 8 mps 756 mmHg 76%
    17:00 -3°C° 0.4 mm 11 mps 756 mmHg 76%
    18:00 -4°C° 0.1 mm 11 mps 758 mmHg 73%
    19:00 -4°C° 0.1 mm 10 mps 759 mmHg 69%
    20:00 -5°C° 0.1 mm 10 mps 760 mmHg 66%
    21:00 -7°C° 0 mm 10 mps 761 mmHg 61%
    22:00 -8°C° 0 mm 10 mps 762 mmHg 57%
    23:00 -9°C° 0 mm 10 mps 763 mmHg 52%

    23 February, Saturday

    Time Temperature Precipitation Wind Pressure Humidity
    00:00 -9°C° 0 mm 9 mps 763 mmHg 52%
    01:00 -9°C° 0 mm 9 mps 764 mmHg 51%
    02:00 -10°C° 0 mm 9 mps 764 mmHg 50%
    03:00 -10°C° 0 mm 8 mps 764 mmHg 49%
    04:00 -10°C° 0 mm 8 mps 764 mmHg 49%
    05:00 -10°C° 0 mm 8 mps 764 mmHg 48%
    06:00 -8°C° 0 mm 7 mps 764 mmHg 47%
    07:00 -8°C° 0 mm 7 mps 765 mmHg 46%
    08:00 -8°C° 0 mm 7 mps 765 mmHg 45%
    09:00 -8°C° 0 mm 7 mps 765 mmHg 43%
    10:00 -7°C° 0 mm 7 mps 765 mmHg 40%
    11:00 -6°C° 0 mm 7 mps 766 mmHg 38%
    12:00 -6°C° 0 mm 7 mps 765 mmHg 38%
    13:00 -6°C° 0 mm 7 mps 765 mmHg 37%
    14:00 -4°C° 0 mm 7 mps 765 mmHg 37%
    15:00 -6°C° 0 mm 7 mps 765 mmHg 40%
    16:00 -6°C° 0 mm 7 mps 765 mmHg 42%
    17:00 -6°C° 0 mm 7 mps 765 mmHg 45%
    18:00 -6°C° 0 mm 6 mps 765 mmHg 47%
    19:00 -6°C° 0 mm 5 mps 766 mmHg 49%
    20:00 -7°C° 0 mm 4 mps 766 mmHg 51%
    21:00 -7°C° 0 mm 5 mps 766 mmHg 52%
    22:00 -7°C° 0 mm 5 mps 766 mmHg 52%
    23:00 -7°C° 0 mm 5 mps 766 mmHg 52%

    24 February, Sunday

    Time Temperature Precipitation Wind Pressure Humidity
    00:00 -7°C° 0 mm 5 mps 766 mmHg 52%
    01:00 -7°C° 0 mm 5 mps 766 mmHg 53%
    02:00 -7°C° 0 mm 5 mps 765 mmHg 53%
    03:00 -8°C° 0 mm 5 mps 765 mmHg 53%
    04:00 -9°C° 0 mm 6 mps 765 mmHg 53%
    05:00 -9°C° 0 mm 6 mps 765 mmHg 54%
    06:00 -9°C° 0 mm 6 mps 765 mmHg 54%
    07:00 -9°C° 0 mm 7 mps 766 mmHg 54%
    08:00 -9°C° 0 mm 7 mps 766 mmHg 54%
    09:00 -8°C° 0 mm 7 mps 766 mmHg 53%
    10:00 -8°C° 0 mm 7 mps 766 mmHg 51%
    11:00 -7°C° 0 mm 8 mps 766 mmHg 49%
    12:00 -7°C° 0 mm 8 mps 766 mmHg 49%
    13:00 -6°C° 0 mm 8 mps 766 mmHg 48%
    14:00 -6°C° 0 mm 8 mps 765 mmHg 47%
    15:00 -6°C° 0 mm 8 mps 766 mmHg 49%
    16:00 -6°C° 0 mm 8 mps 766 mmHg 51%
    17:00 -6°C° 0 mm 7 mps 766 mmHg 53%
    18:00 -7°C° 0 mm 7 mps 766 mmHg 54%
    19:00 -7°C° 0 mm 8 mps 766 mmHg 56%
    20:00 -7°C° 0 mm 8 mps 766 mmHg 57%
    21:00 -7°C° 0 mm 7 mps 766 mmHg 59%
    22:00 -7°C° 0 mm 7 mps 766 mmHg 60%
    23:00 -7°C° 0 mm 7 mps 766 mmHg 62%
    Show more